Location: Chatou
(48.8898°N, 2.1586°E)
Time: 07:04:10
(UTC+00:00)

CZ-4B DEB - Pass Details

Date: 03 February 2023
Orbit: 839 x 859 km, 99.1° (Epoch: 21 March)

Event Time Altitude Azimuth Distance (km) Brightness Sun altitude
Rises 17:47:08 0° 153° (SSE) 3,382 7.2 -9.4°
Reaches altitude 10° 17:49:30 10° 151° (SSE) 2,452 6.5 -9.8°
Maximum altitude 17:54:52 65° 70° (ENE) 922 4.2 -10.7°
Drops below altitude 10° 18:00:18 10° 350° (N) 2,476 6.6 -11.5°
Sets 18:02:41 0° 347° (NNW) 3,419 7.4 -11.9°
